Retour au catalogue

DELTA 2 R/B(2)

ActifHEO
NORAD 29244·ROCKET BODY·🇺🇸 United States

Lancé Jun 21, 2006 depuis Cape Canaveral Space Force Station

Loading…

Prochains Passages (prochaines 24 heures)

TLE

FraisSource: Space-Track

Époque: Sep 14, 2026, 08:43 UTC

1 29244U 06024E   26257.36344217  .00008652  00000-0  13917-2 0  9999
2 29244  26.0824 248.6597 5566820 349.3929   2.4730  4.71336069 39914

Suivez DELTA 2 R/B(2) en temps réel avec AllMySat

Download on the App Store